,,PressureMeas_1m,,PRMeasQMR101_1,,RHStat155_1m_1,,SRMeasQMS101R_1m,,TAStat155_1m_1,,GenWind_1,,GenWind_1,
2019-02-07, 00:00:06,VALID,919.852,VALID,0.0,VALID,95.612,VALID,0.001,VALID,20.072,INVALID,360.0,VALID,0.0,
2019-02-07, 00:01:06,VALID,919.845,VALID,0.0,VALID,95.658,VALID,0.022,VALID,20.087,INVALID,360.0,VALID,0.0,
2019-02-07, 00:02:06,VALID,919.838,VALID,0.0,VALID,95.618,VALID,0.018,VALID,20.079,INVALID,360.0,VALID,0.0,
2019-02-07, 00:03:06,VALID,919.862,VALID,0.0,VALID,95.734,VALID,-0.012,VALID,20.053,INVALID,360.0,VALID,0.293,
2019-02-07, 00:04:06,VALID,919.861,VALID,0.0,VALID,96.152,VALID,-0.003,VALID,20.044,VALID,67.0,VALID,0.37,
2019-02-07, 00:05:06,VALID,919.86,VALID,0.0,VALID,96.362,VALID,0.01,VALID,19.988,VALID,62.0,VALID,0.637,
2019-02-07, 00:06:06,VALID,919.847,VALID,0.0,VALID,96.356,VALID,-0.006,VALID,19.904,VALID,58.0,VALID,0.717,
2019-02-07, 00:07:06,VALID,919.837,VALID,0.0,VALID,96.536,VALID,0.002,VALID,19.872,VALID,63.0,VALID,0.729,
2019-02-07, 00:08:06,VALID,919.852,VALID,0.0,VALID,96.628,VALID,-0.002,VALID,19.856,VALID,70.0,VALID,0.732,
2019-02-07, 00:09:06,VALID,919.845,VALID,0.0,VALID,96.713,VALID,0.011,VALID,19.841,VALID,72.0,VALID,0.574,
2019-02-07, 00:10:06,VALID,919.852,VALID,0.0,VALID,96.729,VALID,-0.005,VALID,19.823,VALID,68.0,VALID,0.513,
2019-02-07, 00:11:06,VALID,919.858,VALID,0.0,VALID,96.797,VALID,0.002,VALID,19.817,VALID,68.0,VALID,0.591,
2019-02-07, 00:12:06,VALID,919.866,VALID,0.0,VALID,96.757,VALID,0.001,VALID,19.806,VALID,69.0,VALID,0.266,
2019-02-07, 00:13:06,VALID,919.852,VALID,0.0,VALID,96.764,VALID,-0.032,VALID,19.793,INVALID,360.0,VALID,0.07,
2019-02-07, 00:14:06,VALID,919.858,VALID,0.0,VALID,96.81,VALID,-0.045,VALID,19.788,INVALID,360.0,VALID,0.0,
2019-02-07, 00:15:06,VALID,919.859,VALID,0.0,VALID,96.937,VALID,-0.024,VALID,19.808,INVALID,360.0,VALID,0.0,
2019-02-07, 00:16:06,VALID,919.841,VALID,0.0,VALID,96.985,VALID,-0.036,VALID,19.811,INVALID,360.0,VALID,0.0,
2019-02-07, 00:17:06,VALID,919.83,VALID,0.0,VALID,97.01,VALID,-0.03,VALID,19.804,INVALID,360.0,VALID,0.0,
2019-02-07, 00:18:06,VALID,919.815,VALID,0.0,VALID,97.065,VALID,-0.03,VALID,19.796,INVALID,360.0,VALID,0.0,
2019-02-07, 00:19:06,VALID,919.806,VALID,0.0,VALID,97.081,VALID,-0.035,VALID,19.794,INVALID,360.0,VALID,0.0,
2019-02-07, 00:20:06,VALID,919.782,VALID,0.0,VALID,97.16,VALID,-0.022,VALID,19.799,INVALID,360.0,VALID,0.0,
2019-02-07, 00:21:06,VALID,919.802,VALID,0.0,VALID,97.18,VALID,-0.039,VALID,19.799,INVALID,360.0,VALID,0.0,
2019-02-07, 00:22:06,VALID,919.785,VALID,0.0,VALID,97.19,VALID,-0.035,VALID,19.792,INVALID,360.0,VALID,0.0,
2019-02-07, 00:23:06,VALID,919.794,VALID,0.0,VALID,97.201,VALID,-0.043,VALID,19.802,INVALID,360.0,VALID,0.0,
2019-02-07, 00:24:06,VALID,919.77,VALID,0.0,VALID,97.287,VALID,-0.045,VALID,19.829,INVALID,360.0,VALID,0.0,
2019-02-07, 00:25:06,VALID,919.761,VALID,0.0,VALID,97.327,VALID,-0.038,VALID,19.84,INVALID,360.0,VALID,0.0,
2019-02-07, 00:26:06,VALID,919.762,VALID,0.0,VALID,97.303,VALID,-0.016,VALID,19.837,INVALID,360.0,VALID,0.0,
2019-02-07, 00:27:06,VALID,919.73,VALID,0.0,VALID,97.328,VALID,-0.025,VALID,19.838,INVALID,360.0,VALID,0.0,
2019-02-07, 00:28:06,VALID,919.73,VALID,0.0,VALID,97.266,VALID,-0.02,VALID,19.825,INVALID,360.0,VALID,0.0,
2019-02-07, 00:29:06,VALID,919.7,VALID,0.0,VALID,97.288,VALID,-0.006,VALID,19.829,INVALID,360.0,VALID,0.0,
2019-02-07, 00:30:06,VALID,919.682,VALID,0.0,VALID,97.344,VALID,-0.012,VALID,19.852,INVALID,360.0,VALID,0.0,
2019-02-07, 00:31:06,VALID,919.655,VALID,0.0,VALID,97.448,VALID,-0.001,VALID,19.89,INVALID,360.0,VALID,0.0,
2019-02-07, 00:32:06,VALID,919.636,VALID,0.0,VALID,97.403,VALID,-0.008,VALID,19.871,INVALID,360.0,VALID,0.0,
2019-02-07, 00:33:06,VALID,919.643,VALID,0.0,VALID,97.364,VALID,-0.011,VALID,19.864,INVALID,360.0,VALID,0.0,
2019-02-07, 00:34:06,VALID,919.632,VALID,0.0,VALID,97.322,VALID,-0.006,VALID,19.841,INVALID,360.0,VALID,0.0,
2019-02-07, 00:35:06,VALID,919.62,VALID,0.0,VALID,97.345,VALID,-0.002,VALID,19.844,INVALID,360.0,VALID,0.0,
2019-02-07, 00:36:06,VALID,919.617,VALID,0.0,VALID,97.366,VALID,-0.017,VALID,19.839,INVALID,360.0,VALID,0.0,
2019-02-07, 00:37:06,VALID,919.63,VALID,0.0,VALID,97.317,VALID,-0.002,VALID,19.826,INVALID,360.0,VALID,0.0,
2019-02-07, 00:38:06,VALID,919.629,VALID,0.0,VALID,97.273,VALID,0.007,VALID,19.815,INVALID,360.0,VALID,0.0,
2019-02-07, 00:39:06,VALID,919.653,VALID,0.0,VALID,97.277,VALID,-0.014,VALID,19.842,INVALID,360.0,VALID,0.0,
2019-02-07, 00:40:06,VALID,919.639,VALID,0.0,VALID,97.333,VALID,-0.005,VALID,19.871,INVALID,360.0,VALID,0.0,
2019-02-07, 00:41:06,VALID,919.645,VALID,0.0,VALID,97.261,VALID,-0.02,VALID,19.852,INVALID,360.0,VALID,0.0,
2019-02-07, 00:42:06,VALID,919.661,VALID,0.0,VALID,97.128,VALID,-0.007,VALID,19.811,INVALID,360.0,VALID,0.0,
2019-02-07, 00:43:06,VALID,919.658,VALID,0.0,VALID,97.064,VALID,-0.011,VALID,19.789,INVALID,360.0,VALID,0.0,
2019-02-07, 00:44:06,VALID,919.656,VALID,0.0,VALID,97.119,VALID,0.012,VALID,19.798,INVALID,360.0,VALID,0.0,
2019-02-07, 00:45:06,VALID,919.67,VALID,0.0,VALID,97.186,VALID,0.013,VALID,19.809,INVALID,360.0,VALID,0.0,
2019-02-07, 00:46:06,VALID,919.66,VALID,0.0,VALID,97.272,VALID,0.013,VALID,19.827,INVALID,360.0,VALID,0.0,
2019-02-07, 00:47:06,VALID,919.656,VALID,0.0,VALID,97.368,VALID,0.006,VALID,19.846,INVALID,360.0,VALID,0.0,
2019-02-07, 00:48:06,VALID,919.659,VALID,0.0,VALID,97.421,VALID,0.013,VALID,19.888,INVALID,360.0,VALID,0.13,
2019-02-07, 00:49:06,VALID,919.658,VALID,0.0,VALID,97.498,VALID,0.004,VALID,19.937,VALID,91.0,VALID,0.219,
2019-02-07, 00:50:06,VALID,919.642,VALID,0.0,VALID,97.529,VALID,0.005,VALID,19.973,VALID,58.0,VALID,0.0,
2019-02-07, 00:51:06,VALID,919.616,VALID,0.0,VALID,97.528,VALID,0.005,VALID,19.995,VALID,59.0,VALID,0.002,
2019-02-07, 00:52:06,VALID,919.615,VALID,0.0,VALID,97.453,VALID,0.016,VALID,20.0,INVALID,360.0,VALID,0.127,
2019-02-07, 00:53:06,VALID,919.565,VALID,0.0,VALID,97.421,VALID,0.01,VALID,19.99,INVALID,360.0,VALID,0.0,
2019-02-07, 00:54:06,VALID,919.589,VALID,0.0,VALID,97.395,VALID,0.003,VALID,19.999,INVALID,360.0,VALID,0.0,
2019-02-07, 00:55:06,VALID,919.583,VALID,0.0,VALID,97.417,VALID,0.008,VALID,20.016,INVALID,360.0,VALID,0.0,
2019-02-07, 00:56:06,VALID,919.568,VALID,0.0,VALID,97.326,VALID,0.002,VALID,20.021,INVALID,360.0,VALID,0.0,
2019-02-07, 00:57:06,VALID,919.555,VALID,0.0,VALID,97.219,VALID,0.013,VALID,20.007,INVALID,360.0,VALID,0.0,
2019-02-07, 00:58:06,VALID,919.583,VALID,0.0,VALID,97.258,VALID,-0.003,VALID,20.017,INVALID,360.0,VALID,0.0,
2019-02-07, 00:59:06,VALID,919.6,VALID,0.0,VALID,97.164,VALID,0.004,VALID,20.01,INVALID,360.0,VALID,0.0,
2019-02-07, 01:00:06,VALID,919.614,VALID,0.0,VALID,97.124,VALID,-0.006,VALID,20.0,INVALID,360.0,VALID,0.0,
2019-02-07, 01:01:06,VALID,919.617,VALID,0.0,VALID,97.161,VALID,-0.006,VALID,20.001,INVALID,360.0,VALID,0.0,
2019-02-07, 01:02:06,VALID,919.629,VALID,0.0,VALID,97.157,VALID,-0.009,VALID,20.0,INVALID,360.0,VALID,0.0,
2019-02-07, 01:03:06,VALID,919.616,VALID,0.0,VALID,97.15,VALID,-0.017,VALID,19.998,INVALID,360.0,VALID,0.0,
2019-02-07, 01:04:06,VALID,919.597,VALID,0.0,VALID,97.192,VALID,-0.005,VALID,20.011,INVALID,360.0,VALID,0.0,
2019-02-07, 01:05:06,VALID,919.583,VALID,0.0,VALID,97.29,VALID,-0.014,VALID,20.038,INVALID,360.0,VALID,0.0,
2019-02-07, 01:06:06,VALID,919.565,VALID,0.0,VALID,97.215,VALID,-0.001,VALID,20.038,INVALID,360.0,VALID,0.0,
2019-02-07, 01:07:06,VALID,919.543,VALID,0.0,VALID,97.217,VALID,-0.003,VALID,20.047,INVALID,360.0,VALID,0.0,
2019-02-07, 01:08:06,VALID,919.507,VALID,0.0,VALID,97.17,VALID,0.005,VALID,20.059,INVALID,360.0,VALID,0.0,
2019-02-07, 01:09:06,VALID,919.502,VALID,0.0,VALID,97.095,VALID,0.004,VALID,20.062,INVALID,360.0,VALID,0.0,
2019-02-07, 01:10:06,VALID,919.486,VALID,0.0,VALID,97.069,VALID,0.014,VALID,20.063,INVALID,360.0,VALID,0.0,
2019-02-07, 01:11:06,VALID,919.504,VALID,0.0,VALID,96.974,VALID,-0.009,VALID,20.041,INVALID,360.0,VALID,0.0,
2019-02-07, 01:12:06,VALID,919.477,VALID,0.0,VALID,96.978,VALID,0.009,VALID,20.03,INVALID,360.0,VALID,0.0,
2019-02-07, 01:13:06,VALID,919.493,VALID,0.0,VALID,96.997,VALID,0.008,VALID,20.032,INVALID,360.0,VALID,0.0,
2019-02-07, 01:14:06,VALID,919.483,VALID,0.0,VALID,97.034,VALID,0.007,VALID,20.027,INVALID,360.0,VALID,0.0,
2019-02-07, 01:15:06,VALID,919.481,VALID,0.0,VALID,97.068,VALID,0.003,VALID,20.035,INVALID,360.0,VALID,0.0,
2019-02-07, 01:16:06,VALID,919.48,VALID,0.0,VALID,97.141,VALID,-0.009,VALID,20.053,INVALID,360.0,VALID,0.0,
2019-02-07, 01:17:06,VALID,919.479,VALID,0.0,VALID,97.194,VALID,0.005,VALID,20.066,INVALID,360.0,VALID,0.0,
2019-02-07, 01:18:06,VALID,919.463,VALID,0.0,VALID,97.272,VALID,0.002,VALID,20.09,INVALID,360.0,VALID,0.0,
2019-02-07, 01:19:06,VALID,919.448,VALID,0.0,VALID,97.23,VALID,0.017,VALID,20.073,INVALID,360.0,VALID,0.0,
2019-02-07, 01:20:06,VALID,919.427,VALID,0.0,VALID,97.205,VALID,0.0,VALID,20.068,INVALID,360.0,VALID,0.0,
2019-02-07, 01:21:06,VALID,919.404,VALID,0.0,VALID,97.172,VALID,0.004,VALID,20.049,INVALID,360.0,VALID,0.0,
2019-02-07, 01:22:06,VALID,919.398,VALID,0.0,VALID,97.078,VALID,-0.01,VALID,20.004,INVALID,360.0,VALID,0.0,
2019-02-07, 01:23:06,VALID,919.373,VALID,0.0,VALID,97.043,VALID,0.006,VALID,19.968,INVALID,360.0,VALID,0.0,
2019-02-07, 01:24:06,VALID,919.35,VALID,0.0,VALID,97.068,VALID,0.009,VALID,19.932,INVALID,360.0,VALID,0.0,
2019-02-07, 01:25:06,VALID,919.338,VALID,0.0,VALID,97.154,VALID,-0.001,VALID,19.916,INVALID,360.0,VALID,0.0,
2019-02-07, 01:26:06,VALID,919.327,VALID,0.0,VALID,97.22,VALID,-0.004,VALID,19.916,INVALID,360.0,VALID,0.0,
2019-02-07, 01:27:06,VALID,919.311,VALID,0.0,VALID,97.273,VALID,0.005,VALID,19.905,INVALID,360.0,VALID,0.0,
2019-02-07, 01:28:06,VALID,919.32,VALID,0.0,VALID,97.193,VALID,0.003,VALID,19.887,INVALID,360.0,VALID,0.0,
2019-02-07, 01:29:06,VALID,919.32,VALID,0.0,VALID,97.091,VALID,0.01,VALID,19.864,INVALID,360.0,VALID,0.0,
2019-02-07, 01:30:06,VALID,919.321,VALID,0.0,VALID,97.05,VALID,0.009,VALID,19.864,INVALID,360.0,VALID,0.0,
2019-02-07, 01:31:06,VALID,919.324,VALID,0.0,VALID,97.129,VALID,-0.004,VALID,19.886,INVALID,360.0,VALID,0.0,
2019-02-07, 01:32:06,VALID,919.31,VALID,0.0,VALID,97.204,VALID,-0.004,VALID,19.926,INVALID,360.0,VALID,0.0,
2019-02-07, 01:33:06,VALID,919.308,VALID,0.0,VALID,97.2,VALID,-0.008,VALID,19.926,INVALID,360.0,VALID,0.0,
2019-02-07, 01:34:06,VALID,919.305,VALID,0.0,VALID,97.139,VALID,-0.01,VALID,19.911,INVALID,360.0,VALID,0.0,
2019-02-07, 01:35:06,VALID,919.275,VALID,0.0,VALID,97.128,VALID,-0.006,VALID,19.89,INVALID,360.0,VALID,0.0,
2019-02-07, 01:36:06,VALID,919.268,VALID,0.0,VALID,97.154,VALID,-0.014,VALID,19.881,INVALID,360.0,VALID,0.0,
2019-02-07, 01:37:06,VALID,919.261,VALID,0.0,VALID,97.177,VALID,0.0,VALID,19.878,INVALID,360.0,VALID,0.0,
2019-02-07, 01:38:06,VALID,919.242,VALID,0.0,VALID,97.186,VALID,-0.003,VALID,19.872,INVALID,360.0,VALID,0.0,
2019-02-07, 01:39:06,VALID,919.229,VALID,0.0,VALID,97.209,VALID,-0.001,VALID,19.873,INVALID,360.0,VALID,0.0,
2019-02-07, 01:40:06,VALID,919.227,VALID,0.0,VALID,97.204,VALID,-0.007,VALID,19.876,VALID,60.0,VALID,0.0,
2019-02-07, 01:41:06,VALID,919.231,VALID,0.0,VALID,97.198,VALID,-0.002,VALID,19.872,INVALID,360.0,VALID,0.0,
2019-02-07, 01:42:06,VALID,919.232,VALID,0.0,VALID,97.191,VALID,0.004,VALID,19.873,INVALID,360.0,VALID,0.0,
2019-02-07, 01:43:06,VALID,919.219,VALID,0.0,VALID,97.318,VALID,0.018,VALID,19.924,INVALID,360.0,VALID,0.0,
2019-02-07, 01:44:06,VALID,919.193,VALID,0.0,VALID,97.239,VALID,0.007,VALID,19.946,INVALID,360.0,VALID,0.0,
2019-02-07, 01:45:06,VALID,919.191,VALID,0.0,VALID,97.281,VALID,0.017,VALID,19.969,INVALID,360.0,VALID,0.0,
2019-02-07, 01:46:06,VALID,919.171,VALID,0.0,VALID,97.335,VALID,0.004,VALID,19.989,INVALID,360.0,VALID,0.0,
2019-02-07, 01:47:06,VALID,919.17,VALID,0.0,VALID,97.251,VALID,0.009,VALID,19.971,INVALID,360.0,VALID,0.0,
2019-02-07, 01:48:06,VALID,919.145,VALID,0.0,VALID,97.255,VALID,-0.002,VALID,19.963,INVALID,360.0,VALID,0.0,
2019-02-07, 01:49:06,VALID,919.124,VALID,0.0,VALID,97.382,VALID,-0.008,VALID,20.009,INVALID,360.0,VALID,0.0,
2019-02-07, 01:50:06,VALID,919.145,VALID,0.0,VALID,97.445,VALID,-0.004,VALID,20.025,INVALID,360.0,VALID,0.0,
2019-02-07, 01:51:06,VALID,919.154,VALID,0.0,VALID,97.34,VALID,0.001,VALID,19.994,INVALID,360.0,VALID,0.0,
2019-02-07, 01:52:06,VALID,919.137,VALID,0.0,VALID,97.364,VALID,0.001,VALID,20.004,INVALID,360.0,VALID,0.0,
2019-02-07, 01:53:06,VALID,919.138,VALID,0.0,VALID,97.3,VALID,0.015,VALID,19.982,INVALID,360.0,VALID,0.0,
2019-02-07, 01:54:06,VALID,919.131,VALID,0.0,VALID,97.197,VALID,-0.006,VALID,19.963,INVALID,360.0,VALID,0.0,
2019-02-07, 01:55:06,VALID,919.13,VALID,0.0,VALID,97.181,VALID,-0.008,VALID,19.959,INVALID,360.0,VALID,0.0,
2019-02-07, 01:56:06,VALID,919.13,VALID,0.0,VALID,97.025,VALID,-0.005,VALID,19.917,INVALID,360.0,VALID,0.0,
2019-02-07, 01:57:06,VALID,919.109,VALID,0.0,VALID,96.989,VALID,-0.007,VALID,19.9,INVALID,360.0,VALID,0.0,
2019-02-07, 01:58:06,VALID,919.086,VALID,0.0,VALID,97.053,VALID,-0.003,VALID,19.9,INVALID,360.0,VALID,0.0,
2019-02-07, 01:59:06,VALID,919.083,VALID,0.0,VALID,97.23,VALID,-0.009,VALID,19.937,INVALID,360.0,VALID,0.0,
2019-02-07, 02:00:06,VALID,919.081,VALID,0.0,VALID,97.235,VALID,-0.027,VALID,19.956,INVALID,360.0,VALID,0.0,
2019-02-07, 02:01:06,VALID,919.068,VALID,0.0,VALID,97.236,VALID,-0.018,VALID,19.975,INVALID,360.0,VALID,0.0,
2019-02-07, 02:02:06,VALID,919.042,VALID,0.0,VALID,97.282,VALID,-0.007,VALID,20.006,INVALID,360.0,VALID,0.0,
2019-02-07, 02:03:06,VALID,919.046,VALID,0.0,VALID,97.215,VALID,0.002,VALID,20.001,INVALID,360.0,VALID,0.0,
2019-02-07, 02:04:06,VALID,919.038,VALID,0.0,VALID,97.191,VALID,-0.033,VALID,19.974,INVALID,360.0,VALID,0.0,
2019-02-07, 02:05:06,VALID,919.019,VALID,0.0,VALID,97.28,VALID,-0.025,VALID,19.956,INVALID,360.0,VALID,0.0,
2019-02-07, 02:06:06,VALID,919.017,VALID,0.0,VALID,97.409,VALID,-0.021,VALID,19.939,INVALID,360.0,VALID,0.0,
2019-02-07, 02:07:06,VALID,919.012,VALID,0.0,VALID,97.553,VALID,-0.022,VALID,19.932,INVALID,360.0,VALID,0.0,
2019-02-07, 02:08:06,VALID,918.983,VALID,0.0,VALID,97.659,VALID,-0.015,VALID,19.916,INVALID,360.0,VALID,0.0,
2019-02-07, 02:09:06,VALID,918.977,VALID,0.0,VALID,97.728,VALID,-0.02,VALID,19.902,INVALID,360.0,VALID,0.0,
2019-02-07, 02:10:06,VALID,918.957,VALID,0.0,VALID,97.799,VALID,-0.036,VALID,19.893,INVALID,360.0,VALID,0.0,
2019-02-07, 02:11:06,VALID,918.929,VALID,0.0,VALID,97.875,VALID,-0.026,VALID,19.897,INVALID,360.0,VALID,0.0,
2019-02-07, 02:12:06,VALID,918.912,VALID,0.0,VALID,97.901,VALID,-0.003,VALID,19.88,INVALID,360.0,VALID,0.0,
2019-02-07, 02:13:06,VALID,918.901,VALID,0.0,VALID,97.957,VALID,0.008,VALID,19.88,INVALID,360.0,VALID,0.0,
2019-02-07, 02:14:06,VALID,918.914,VALID,0.0,VALID,98.05,VALID,0.018,VALID,19.894,INVALID,360.0,VALID,0.0,
2019-02-07, 02:15:06,VALID,918.924,VALID,0.0,VALID,98.066,VALID,0.015,VALID,19.885,INVALID,360.0,VALID,0.0,
2019-02-07, 02:16:06,VALID,918.931,VALID,0.0,VALID,98.05,VALID,0.02,VALID,19.865,INVALID,360.0,VALID,0.0,
2019-02-07, 02:17:06,VALID,918.921,VALID,0.0,VALID,98.091,VALID,0.019,VALID,19.851,INVALID,360.0,VALID,0.0,
2019-02-07, 02:18:06,VALID,918.912,VALID,0.0,VALID,98.059,VALID,0.0,VALID,19.826,INVALID,360.0,VALID,0.0,
2019-02-07, 02:19:06,VALID,918.906,VALID,0.0,VALID,98.064,VALID,0.007,VALID,19.825,INVALID,360.0,VALID,0.0,
2019-02-07, 02:20:06,VALID,918.894,VALID,0.0,VALID,98.082,VALID,0.007,VALID,19.845,INVALID,360.0,VALID,0.0,
2019-02-07, 02:21:06,VALID,918.89,VALID,0.0,VALID,98.083,VALID,0.002,VALID,19.847,INVALID,360.0,VALID,0.0,
2019-02-07, 02:22:06,VALID,918.88,VALID,0.0,VALID,98.043,VALID,0.018,VALID,19.828,INVALID,360.0,VALID,0.0,
2019-02-07, 02:23:06,VALID,918.863,VALID,0.0,VALID,97.99,VALID,0.022,VALID,19.812,INVALID,360.0,VALID,0.0,
2019-02-07, 02:24:06,VALID,918.862,VALID,0.0,VALID,98.012,VALID,0.006,VALID,19.832,INVALID,360.0,VALID,0.0,
2019-02-07, 02:25:06,VALID,918.847,VALID,0.0,VALID,98.06,VALID,0.003,VALID,19.853,INVALID,360.0,VALID,0.0,
2019-02-07, 02:26:06,VALID,918.84,VALID,0.0,VALID,98.024,VALID,0.001,VALID,19.855,INVALID,360.0,VALID,0.0,
2019-02-07, 02:27:06,VALID,918.821,VALID,0.0,VALID,98.018,VALID,-0.005,VALID,19.859,INVALID,360.0,VALID,0.0,
2019-02-07, 02:28:06,VALID,918.802,VALID,0.0,VALID,97.998,VALID,-0.023,VALID,19.854,INVALID,360.0,VALID,0.0,
2019-02-07, 02:29:06,VALID,918.777,VALID,0.0,VALID,97.983,VALID,0.002,VALID,19.85,INVALID,360.0,VALID,0.0,
2019-02-07, 02:30:06,VALID,918.759,VALID,0.0,VALID,97.996,VALID,-0.001,VALID,19.857,INVALID,360.0,VALID,0.0,
2019-02-07, 02:31:06,VALID,918.745,VALID,0.0,VALID,97.992,VALID,-0.02,VALID,19.867,INVALID,360.0,VALID,0.0,
2019-02-07, 02:32:06,VALID,918.742,VALID,0.0,VALID,97.943,VALID,0.002,VALID,19.863,INVALID,360.0,VALID,0.0,
2019-02-07, 02:33:06,VALID,918.752,VALID,0.0,VALID,97.951,VALID,0.006,VALID,19.875,INVALID,360.0,VALID,0.0,
2019-02-07, 02:34:06,VALID,918.758,VALID,0.0,VALID,97.94,VALID,-0.002,VALID,19.888,INVALID,360.0,VALID,0.0,
2019-02-07, 02:35:06,VALID,918.759,VALID,0.0,VALID,97.897,VALID,-0.011,VALID,19.877,INVALID,360.0,VALID,0.0,
2019-02-07, 02:36:06,VALID,918.751,VALID,0.0,VALID,97.826,VALID,-0.026,VALID,19.884,INVALID,360.0,VALID,0.0,
2019-02-07, 02:37:06,VALID,918.761,VALID,0.0,VALID,97.776,VALID,-0.016,VALID,19.885,INVALID,360.0,VALID,0.0,
2019-02-07, 02:38:06,VALID,918.753,VALID,0.0,VALID,97.666,VALID,-0.02,VALID,19.875,INVALID,360.0,VALID,0.0,
2019-02-07, 02:39:06,VALID,918.76,VALID,0.0,VALID,97.595,VALID,-0.015,VALID,19.874,INVALID,360.0,VALID,0.0,
2019-02-07, 02:40:06,VALID,918.744,VALID,0.0,VALID,97.55,VALID,-0.013,VALID,19.892,INVALID,360.0,VALID,0.0,
2019-02-07, 02:41:06,VALID,918.737,VALID,0.0,VALID,97.579,VALID,-0.001,VALID,19.918,INVALID,360.0,VALID,0.0,
2019-02-07, 02:42:06,VALID,918.73,VALID,0.0,VALID,97.641,VALID,-0.016,VALID,19.953,INVALID,360.0,VALID,0.0,
2019-02-07, 02:43:06,VALID,918.709,VALID,0.0,VALID,97.74,VALID,-0.013,VALID,19.999,INVALID,360.0,VALID,0.0,
2019-02-07, 02:44:06,VALID,918.71,VALID,0.0,VALID,97.824,VALID,0.002,VALID,20.032,INVALID,360.0,VALID,0.0,
2019-02-07, 02:45:06,VALID,918.704,VALID,0.0,VALID,97.78,VALID,0.012,VALID,20.031,INVALID,360.0,VALID,0.0,
2019-02-07, 02:46:06,VALID,918.698,VALID,0.0,VALID,97.725,VALID,-0.002,VALID,20.02,INVALID,360.0,VALID,0.0,
2019-02-07, 02:47:06,VALID,918.692,VALID,0.0,VALID,97.726,VALID,0.018,VALID,20.011,INVALID,360.0,VALID,0.0,
2019-02-07, 02:48:06,VALID,918.682,VALID,0.0,VALID,97.669,VALID,0.019,VALID,19.998,INVALID,360.0,VALID,0.0,
2019-02-07, 02:49:06,VALID,918.652,VALID,0.0,VALID,97.637,VALID,0.005,VALID,19.98,INVALID,360.0,VALID,0.0,
2019-02-07, 02:50:06,VALID,918.639,VALID,0.0,VALID,97.648,VALID,0.003,VALID,19.968,INVALID,360.0,VALID,0.0,
2019-02-07, 02:51:06,VALID,918.623,VALID,0.0,VALID,97.73,VALID,0.002,VALID,19.971,INVALID,360.0,VALID,0.0,
2019-02-07, 02:52:06,VALID,918.611,VALID,0.0,VALID,97.769,VALID,0.012,VALID,19.953,INVALID,360.0,VALID,0.0,
2019-02-07, 02:53:06,VALID,918.605,VALID,0.0,VALID,97.841,VALID,0.007,VALID,19.946,INVALID,360.0,VALID,0.0,
2019-02-07, 02:54:06,VALID,918.598,VALID,0.0,VALID,97.931,VALID,0.017,VALID,19.949,INVALID,360.0,VALID,0.0,
2019-02-07, 02:55:06,VALID,918.6,VALID,0.0,VALID,97.948,VALID,0.017,VALID,19.937,INVALID,360.0,VALID,0.0,
2019-02-07, 02:56:06,VALID,918.596,VALID,0.0,VALID,97.991,VALID,0.015,VALID,19.956,INVALID,360.0,VALID,0.0,
2019-02-07, 02:57:06,VALID,918.609,VALID,0.0,VALID,98.061,VALID,-0.0,VALID,19.993,INVALID,360.0,VALID,0.0,
2019-02-07, 02:58:06,VALID,918.623,VALID,0.0,VALID,98.082,VALID,-0.016,VALID,20.029,INVALID,360.0,VALID,0.0,
2019-02-07, 02:59:06,VALID,918.632,VALID,0.0,VALID,98.04,VALID,-0.011,VALID,20.042,INVALID,360.0,VALID,0.0,
2019-02-07, 03:00:06,VALID,918.608,VALID,0.0,VALID,97.984,VALID,-0.016,VALID,20.044,INVALID,360.0,VALID,0.0,
2019-02-07, 03:01:06,VALID,918.592,VALID,0.0,VALID,97.952,VALID,-0.008,VALID,20.057,INVALID,360.0,VALID,0.0,
2019-02-07, 03:02:06,VALID,918.575,VALID,0.0,VALID,97.968,VALID,-0.022,VALID,20.081,INVALID,360.0,VALID,0.0,
2019-02-07, 03:03:06,VALID,918.566,VALID,0.0,VALID,97.979,VALID,-0.009,VALID,20.106,INVALID,360.0,VALID,0.0,
2019-02-07, 03:04:06,VALID,918.557,VALID,0.0,VALID,97.85,VALID,-0.018,VALID,20.071,INVALID,360.0,VALID,0.0,
2019-02-07, 03:05:06,VALID,918.541,VALID,0.0,VALID,97.68,VALID,-0.019,VALID,20.016,INVALID,360.0,VALID,0.0,
2019-02-07, 03:06:06,VALID,918.52,VALID,0.0,VALID,97.621,VALID,-0.02,VALID,19.995,INVALID,360.0,VALID,0.0,
2019-02-07, 03:07:06,VALID,918.522,VALID,0.0,VALID,97.653,VALID,-0.007,VALID,19.998,INVALID,360.0,VALID,0.0,
2019-02-07, 03:08:06,VALID,918.508,VALID,0.0,VALID,97.627,VALID,-0.018,VALID,19.999,INVALID,360.0,VALID,0.0,
2019-02-07, 03:09:06,VALID,918.48,VALID,0.0,VALID,97.648,VALID,-0.015,VALID,20.018,INVALID,360.0,VALID,0.0,
2019-02-07, 03:10:06,VALID,918.48,VALID,0.0,VALID,97.701,VALID,-0.023,VALID,20.055,INVALID,360.0,VALID,0.0,
2019-02-07, 03:11:06,VALID,918.46,VALID,0.0,VALID,97.552,VALID,-0.016,VALID,20.049,INVALID,360.0,VALID,0.0,
2019-02-07, 03:12:06,VALID,918.436,VALID,0.0,VALID,97.399,VALID,-0.013,VALID,20.028,INVALID,360.0,VALID,0.0,
2019-02-07, 03:13:06,VALID,918.41,VALID,0.0,VALID,97.355,VALID,-0.024,VALID,20.05,INVALID,360.0,VALID,0.0,
2019-02-07, 03:14:06,VALID,918.388,VALID,0.0,VALID,97.396,VALID,-0.015,VALID,20.067,INVALID,360.0,VALID,0.0,
2019-02-07, 03:15:06,VALID,918.351,VALID,0.0,VALID,97.378,VALID,-0.02,VALID,20.067,INVALID,360.0,VALID,0.0,
2019-02-07, 03:16:06,VALID,918.329,VALID,0.0,VALID,97.41,VALID,0.001,VALID,20.08,INVALID,360.0,VALID,0.0,
2019-02-07, 03:17:06,VALID,918.289,VALID,0.0,VALID,97.453,VALID,-0.018,VALID,20.091,INVALID,360.0,VALID,0.0,
2019-02-07, 03:18:06,VALID,918.258,VALID,0.0,VALID,97.407,VALID,-0.002,VALID,20.066,INVALID,360.0,VALID,0.0,
2019-02-07, 03:19:06,VALID,918.23,VALID,0.0,VALID,97.377,VALID,-0.015,VALID,20.044,INVALID,360.0,VALID,0.0,
2019-02-07, 03:20:06,VALID,918.204,VALID,0.0,VALID,97.308,VALID,-0.017,VALID,20.006,INVALID,360.0,VALID,0.0,
2019-02-07, 03:21:06,VALID,918.21,VALID,0.0,VALID,97.352,VALID,-0.011,VALID,19.988,INVALID,360.0,VALID,0.0,
2019-02-07, 03:22:06,VALID,918.19,VALID,0.0,VALID,97.416,VALID,-0.002,VALID,19.966,INVALID,360.0,VALID,0.0,
2019-02-07, 03:23:06,VALID,918.193,VALID,0.0,VALID,97.441,VALID,-0.011,VALID,19.943,INVALID,360.0,VALID,0.0,
2019-02-07, 03:24:06,VALID,918.197,VALID,0.0,VALID,97.558,VALID,0.008,VALID,19.95,INVALID,360.0,VALID,0.0,
2019-02-07, 03:25:06,VALID,918.185,VALID,0.0,VALID,97.601,VALID,0.005,VALID,19.947,INVALID,360.0,VALID,0.0,
2019-02-07, 03:26:06,VALID,918.195,VALID,0.0,VALID,97.55,VALID,-0.003,VALID,19.902,INVALID,360.0,VALID,0.0,
2019-02-07, 03:27:06,VALID,918.168,VALID,0.0,VALID,97.595,VALID,-0.015,VALID,19.882,INVALID,360.0,VALID,0.0,
2019-02-07, 03:28:06,VALID,918.155,VALID,0.0,VALID,97.775,VALID,-0.004,VALID,19.915,INVALID,360.0,VALID,0.0,
2019-02-07, 03:29:06,VALID,918.132,VALID,0.0,VALID,97.864,VALID,0.002,VALID,19.94,INVALID,360.0,VALID,0.0,
2019-02-07, 03:30:06,VALID,918.114,VALID,0.0,VALID,97.866,VALID,-0.0,VALID,19.937,INVALID,360.0,VALID,0.0,
2019-02-07, 03:31:06,VALID,918.116,VALID,0.0,VALID,97.87,VALID,0.012,VALID,19.935,INVALID,360.0,VALID,0.0,
2019-02-07, 03:32:06,VALID,918.09,VALID,0.0,VALID,97.752,VALID,-0.012,VALID,19.881,INVALID,360.0,VALID,0.0,
2019-02-07, 03:33:06,VALID,918.072,VALID,0.0,VALID,97.753,VALID,-0.014,VALID,19.856,INVALID,360.0,VALID,0.0,
2019-02-07, 03:34:06,VALID,918.084,VALID,0.0,VALID,97.754,VALID,0.002,VALID,19.84,INVALID,360.0,VALID,0.0,
2019-02-07, 03:35:06,VALID,918.071,VALID,0.0,VALID,97.804,VALID,0.001,VALID,19.827,INVALID,360.0,VALID,0.0,
2019-02-07, 03:36:06,VALID,918.092,VALID,0.0,VALID,97.849,VALID,0.004,VALID,19.815,INVALID,360.0,VALID,0.0,
2019-02-07, 03:37:06,VALID,918.07,VALID,0.0,VALID,97.891,VALID,-0.0,VALID,19.808,INVALID,360.0,VALID,0.0,
2019-02-07, 03:38:06,VALID,918.083,VALID,0.0,VALID,97.967,VALID,0.018,VALID,19.818,INVALID,360.0,VALID,0.0,